{"data":{"norad_id":64665,"epoch":"2026-09-20T06:11:10.837248Z","epoch_age_seconds":152486,"freshness":"FRESH","line1":"1 64665U 25139B   26263.25776432  .00012250  00000+0  37330-3 0  9990","line2":"2 64665  53.1582 299.0179 0001380  97.9336 262.1823 15.34381888 70032","mean_motion":15.34381888,"eccentricity":0.000138,"inclination_deg":53.1582,"raan_deg":299.0179,"arg_perigee_deg":97.9336,"mean_anomaly_deg":262.1823,"bstar":0.0003733,"rev_number":7003,"period_min":93.848865869824,"perigee_km":461.81303003544,"apogee_km":463.70111679971,"semimajor_km":6840.8940734176,"source":"CELESTRAK","updated_at":"2026-09-21T09:00:35.396959Z"}}